Regional Weather Roundup
Issued by NWS Little Rock, AR

Home | Current Version | Previous Version | Text Only | Print | Product List | Glossary On
Versions: 1 2 3 4 5 6 7 8 9 10 11 12 13 14 15 16 17 18 19 20 21 22 23 24 25 26 27 28 29 30 31 32 33 34 35 36 37 38 39 40 41 42 43 44 45 46 47 48 49 50
000
ASUS44 KLZK 241505
RWRLZK

WEATHER ROUNDUP FOR ARKANSAS
NATIONAL WEATHER SERVICE LITTLE ROCK AR
1000 AM CDT MON APR 24 2017

NOTE: "FAIR" INDICATES FEW OR NO CLOUDS BELOW 12,000 FEET WITH NO
SIGNIFICANT WEATHER AND/OR OBSTRUCTIONS TO VISIBILITY.

ARZ001-003-010-029-241600-
NORTHWEST ARKANSAS

CITY           SKY/WX    TMP DP  RH WIND       PRES   REMARKS
FAYETTEVILLE   SUNNY     59  47  64 E3        29.98F
FORT SMITH     SUNNY     60  46  59 E3        29.98F
HARRISON       SUNNY     63  41  44 E3        29.99S
BENTONVILLE    SUNNY     61  43  51 S8        29.98F
ROGERS         SUNNY     61  42  49 S8        29.98F
SILOAM SPGS    SUNNY     61  45  55 SE6       29.97F
HIGHFILL       SUNNY     62  44  51 S10       29.97F
SPRINGDALE     SUNNY     61  43  51 S6        29.99F
$$

ARZ004-005-016-241600-
NORTH CENTRAL ARKANSAS

CITY           SKY/WX    TMP DP  RH WIND       PRES   REMARKS
BATESVILLE     SUNNY    N/A N/A N/A W7        29.98S
FLIPPIN        SUNNY     57  43  58 CALM      29.97F
MTN HOME       SUNNY     58  44  60 VRB5      29.98S
$$

ARZ040-041-241600-
WEST CENTRAL ARKANSAS

CITY           SKY/WX    TMP DP  RH WIND       PRES   REMARKS
MENA           SUNNY     63  46  55 E3        29.99F
MOUNT IDA      SUNNY     63  44  50 CALM      29.97
$$

ARZ009-017-025-026-028-241600-
NORTHEAST ARKANSAS

CITY           SKY/WX    TMP DP  RH WIND       PRES   REMARKS
JONESBORO      SUNNY     66  44  45 VRB3      29.93F
NEWPORT        SUNNY     62  44  51 N5        29.96F
WALNUT RIDGE   SUNNY     63  45  51 NW6       29.95S
BLYTHEVILLE    SUNNY     63  51  65 NE10      29.92S
$$

ARZ022-023-033-042-044-241600-
CENTRAL ARKANSAS

CITY           SKY/WX    TMP DP  RH WIND       PRES   REMARKS
LITTLE ROCK    SUNNY     64  44  48 NW8       29.97F
N LITTLE ROCK    N/A     63  45  51 NW6       29.98S
JACKSONVILLE   SUNNY     64  45  50 W7        29.96F
CONWAY           N/A     63  48  59 CALM      29.97F
SEARCY         SUNNY     65  43  44 VRB3      29.98S
HOT SPRINGS    SUNNY     62  52  69 W6        29.99S
RUSSELLVILLE   SUNNY     61  46  57 NW5       29.99S
$$

ARZ036-241600-
EAST ARKANSAS

CITY           SKY/WX    TMP DP  RH WIND       PRES   REMARKS
WEST MEMPHIS   SUNNY     61  48  62 N8        29.91S
$$

ARZ050-053-066-070-073-241600-
SOUTHWEST ARKANSAS

CITY           SKY/WX    TMP DP  RH WIND       PRES   REMARKS
ARKADELPHIA    FAIR      68  49  50 W3        29.99S
CAMDEN         SUNNY     64  48  55 CALM      29.98S
TEXARKANA      SUNNY     65  48  54 NE3       29.99S
EL DORADO      SUNNY     68  44  42 W6        29.98S
DE QUEEN       SUNNY     64  52  64 E3        29.97F
$$

ARZ056-057-069-241600-
SOUTHEAST ARKANSAS

CITY           SKY/WX    TMP DP  RH WIND       PRES   REMARKS
PINE BLUFF     SUNNY     63  45  51 N8        29.97S
STUTTGART      SUNNY     63  39  42 NW10      29.97F
MONTICELLO     SUNNY     66  45  46 NW8       29.96S

$$





USA.gov is the U.S. government's official web portal to all federal, state and local government web resources and services.